Temp
-5 -6 -6 -7 -7 -7 -7 -7 -7 -7 -6 -6 -5 -5 -6 -6 -6 -6 -7 -6 -5 -5 -5 -5 -5 -5 -5 -6 -6 -6 -6 -6 -6 -7 -7 -8 -8 -8 -8 -8 -8 -8 -8 -7
-5 -5 -5 -6 -6 -6 -6 -7 -7 -7 -6 -6 -5 -4 -5 -6 -6 -6 -6 -6 -5 -5 -4 -5 -5 -5 -6 -6 -6 -6 -6 -6 -6 -7 -7 -7 -8 -7 -8 -8 -8 -8 -7 -7
-5 -5 -5 -5 -6 -6 -6 -6 -6 -6 -6 -6 -6 -5 -5 -5 -5 -6 -6 -7 -6 -5 -5 -5 -5 -5 -5 -6 -6 -6 -6 -6 -7 -7 -7 -7 -7 -7 -8 -8 -8 -8 -8 -8
-5 -4 -5 -4 -5 -6 -6 -6 -6 -6 -6 -6 -6 -5 -5 -5 -5 -6 -6 -6 -6 -6 -6 -6 -7 -6 -6 -6 -6 -6 -6 -6 -7 -7 -7 -7 -7 -8 -7 -8 -8 -8 -7 -8
-4 -4 -4 -4 -4 -6 -6 -6 -6 -6 -6 -6 -6 -5 -6 -5 -5 -6 -6 -6 -5 -6 -6 -6 -7 -6 -7 -7 -6 -6 -6 -7 -7 -7 -7 -7 -8 -8 -8 -7 -7 -7 -8 -7
-5 -5 -5 -3 -4 -6 -6 -6 -6 -7 -6 -5 -5 -6 -5 -5 -6 -5 -6 -6 -5 -5 -5 -6 -7 -7 -8 -8 -8 -8 -7 -7 -7 -8 -8 -7 -7 -8 -8 -8 -8 -7 -7 -7
-4 -3 -4 -3 -3 -6 -6 -6 -5 -5 -6 -6 -6 -6 -5 -6 -6 -6 -6 -5 -5 -5 -5 -5 -5 -6 -7 -8 -8 -8 -8 -7 -8 -8 -8 -9 -9 -9 -7 -8 -8 -9 -8 -8
-4 -4 -3 -3 -3 -5 -6 -5 -5 -6 -6 -6 -6 -5 -4 -5 -6 -6 -6 -5 -5 -5 -5 -5 -6 -5 -6 -7 -7 -7 -7 -7 -8 -7 -8 -8 -9 -9 -8 -9 -9 -8 -9 -9
-4 -4 -5 -4 -4 -5 -5 -4 -6 -6 -6 -5 -6 -5 -5 -5 -6 -6 -6 -6 -6 -6 -6 -6 -5 -6 -6 -6 -7 -7 -7 -7 -8 -8 -8 -8 -9 -8 -8 -7 -9 -9 -10 -9
-5 -5 -5 -5 -5 -5 -5 -5 -6 -6 -6 -6 -6 -6 -6 -6 -6 -6 -6 -6 -6 -6 -6 -6 -6 -6 -6 -6 -8 -7 -6 -8 -9 -8 -8 -8 -8 -9 -8 -9 -8 -9 -9 -8
-5 -5 -5 -5 -5 -5 -5 -5 -6 -6 -6 -6 -6 -6 -6 -6 -6 -6 -6 -7 -6 -6 -6 -6 -6 -6 -7 -8 -7 -8 -8 -7 -9 -8 -8 -9 -8 -8 -8 -8 -8 -9 -9 -8
-5 -5 -6 -5 -6 -6 -6 -6 -5 -5 -5 -6 -6 -6 -7 -6 -6 -6 -6 -6 -7 -6 -6 -6 -6 -7 -7 -8 -8 -8 -8 -7 -8 -8 -7 -8 -8 -8 -8 -8 -9 -9 -8 -9
-6 -5 -5 -6 -6 -5 -5 -7 -7 -6 -5 -6 -6 -7 -6 -7 -6 -6 -6 -6 -6 -6 -6 -6 -7 -7 -8 -8 -8 -8 -7 -7 -7 -7 -8 -9 -8 -8 -8 -8 -8 -9 -9 -9
-7 -6 -5 -5 -6 -6 -6 -5 -7 -7 -6 -5 -6 -6 -7 -7 -7 -6 -6 -6 -6 -6 -6 -7 -7 -7 -7 -7 -8 -7 -7 -7 -7 -8 -8 -8 -8 -7 -8 -8 -9 -9 -9 -9
-8 -7 -6 -6 -6 -7 -6 -7 -7 -7 -7 -6 -6 -6 -7 -7 -7 -6 -6 -6 -5 -6 -6 -7 -7 -7 -7 -7 -7 -7 -7 -7 -8 -8 -8 -8 -8 -8 -8 -8 -8 -9 -9 -9
-8 -8 -7 -7 -7 -7 -7 -7 -7 -7 -7 -7 -6 -6 -6 -7 -7 -7 -6 -5 -6 -6 -6 -6 -6 -7 -7 -7 -7 -7 -8 -8 -8 -7 -7 -7 -7 -7 -8 -9 -9 -10 -10 -11
-8 -8 -8 -7 -7 -7 -7 -7 -7 -7 -7 -7 -7 -6 -6 -7 -7 -7 -7 -6 -6 -6 -6 -6 -7 -7 -7 -7 -7 -7 -7 -7 -7 -7 -7 -7 -7 -8 -9 -10 -10 -10 -11 -11
-8 -8 -8 -7 -7 -7 -6 -7 -8 -8 -8 -8 -7 -8 -7 -7 -7 -7 -8 -7 -8 -8 -6 -7 -7 -7 -7 -7 -6 -7 -7 -7 -7 -7 -8 -8 -9 -9 -10 -10 -10 -10 -10 -10
-8 -8 -8 -8 -8 -8 -7 -7 -7 -7 -8 -8 -7 -7 -7 -8 -7 -7 -8 -7 -8 -8 -7 -8 -7 -7 -7 -7 -7 -7 -7 -8 -8 -8 -9 -9 -9 -10 -10 -10 -9 -9 -9 -10
-8 -8 -8 -8 -8 -8 -5 -6 -7 -7 -8 -8 -8 -8 -7 -8 -8 -8 -7 -7 -8 -8 -8 -8 -8 -8 -8 -8 -8 -8 -8 -8 -9 -9 -9 -8 -8 -8 -8 -9 -9 -10 -10 -11
-8 -8 -8 -8 -9 -8 -6 -6 -7 -7 -7 -7 -7 -8 -8 -8 -8 -8 -9 -8 -8 -8 -8 -8 -8 -8 -8 -9 -8 -8 -9 -9 -9 -9 -9 -9 -9 -9 -10 -10 -11 -11 -11 -11
-8 -8 -8 -8 -8 -7 -6 -6 -7 -7 -7 -8 -8 -7 -8 -8 -8 -8 -8 -8 -8 -9 -9 -9 -9 -9 -9 -9 -9 -9 -9 -9 -9 -9 -9 -10 -10 -10 -11 -11 -11 -11 -11 -12
-9 -9 -8 -8 -8 -8 -7 -6 -7 -7 -7 -8 -8 -8 -8 -8 -8 -8 -8 -9 -10 -10 -9 -9 -10 -9 -9 -9 -9 -9 -9 -9 -10 -10 -10 -10 -10 -11 -11 -11 -11 -12 -12 -12
-9 -10 -9 -9 -9 -8 -8 -7 -7 -7 -7 -7 -7 -7 -8 -8 -8 -9 -9 -9 -9 -9 -9 -10 -10 -10 -10 -10 -10 -10 -10 -10 -10 -10 -10 -10 -10 -11 -11 -12 -12 -12 -12 -12
-10 -10 -10 -9 -8 -8 -8 -8 -8 -8 -9 -8 -9 -8 -8 -9 -9 -9 -9 -9 -9 -10 -10 -10 -10 -10 -10 -10 -10 -10 -10 -10 -10 -10 -10 -11 -11 -12 -12 -13 -13 -13 -13 -13
-10 -10 -9 -9 -8 -8 -9 -8 -8 -8 -8 -9 -10 -9 -9 -10 -10 -10 -10 -10 -10 -11 -11 -10 -10 -10 -10 -10 -10 -10 -10 -10 -10 -11 -11 -12 -12 -13 -13 -13 -13 -13 -13 -14
Height
5936 5938 5940 5942 5944 5945 5946 5946 5946 5950 5952 5952 5953 5952 5950 5951 5952 5952 5950 5949 5949 5948 5947 5947 5946 5944 5942 5939 5939 5939 5939 5938 5937 5936 5936 5934 5933 5935 5934 5934 5932 5933 5933 5931
5936 5937 5939 5940 5942 5943 5944 5943 5941 5948 5951 5952 5951 5952 5950 5951 5952 5953 5951 5949 5949 5948 5948 5948 5949 5947 5945 5945 5944 5943 5942 5941 5940 5938 5937 5935 5936 5935 5933 5933 5933 5933 5932 5931
5936 5938 5938 5938 5940 5942 5942 5944 5946 5949 5950 5949 5950 5951 5948 5949 5951 5952 5953 5952 5950 5950 5948 5947 5948 5948 5947 5947 5946 5946 5944 5942 5940 5939 5937 5937 5936 5934 5933 5932 5929 5930 5929 5926
5930 5932 5936 5939 5939 5940 5939 5946 5947 5950 5950 5950 5950 5949 5947 5947 5949 5951 5953 5954 5954 5953 5951 5949 5948 5947 5946 5947 5947 5947 5946 5943 5940 5939 5936 5935 5934 5932 5934 5936 5932 5928 5925 5924
5931 5932 5935 5937 5938 5937 5945 5946 5946 5948 5950 5948 5946 5946 5946 5944 5946 5950 5951 5953 5955 5955 5954 5951 5949 5948 5945 5945 5944 5944 5942 5941 5941 5940 5937 5933 5931 5930 5930 5931 5932 5929 5925 5923
5923 5929 5931 5935 5936 5937 5941 5944 5944 5945 5945 5946 5948 5946 5945 5944 5945 5947 5948 5950 5952 5952 5952 5951 5951 5949 5946 5944 5943 5942 5941 5939 5938 5938 5935 5932 5929 5925 5925 5925 5923 5923 5924 5918
5920 5922 5926 5930 5931 5935 5937 5939 5943 5943 5944 5946 5947 5944 5944 5944 5944 5945 5946 5948 5947 5947 5948 5949 5950 5950 5948 5945 5943 5940 5939 5937 5935 5933 5931 5927 5923 5921 5920 5920 5918 5916 5918 5914
5916 5920 5924 5927 5929 5931 5934 5937 5942 5941 5942 5943 5941 5939 5941 5943 5942 5942 5944 5945 5944 5945 5946 5946 5946 5947 5945 5944 5942 5938 5935 5933 5929 5928 5925 5924 5920 5918 5918 5916 5914 5909 5907 5903
5912 5917 5920 5922 5927 5929 5931 5935 5938 5938 5938 5938 5938 5939 5940 5939 5941 5940 5940 5940 5941 5945 5944 5945 5944 5942 5942 5940 5941 5931 5928 5928 5925 5924 5910 5907 5906 5909 5912 5911 5905 5903 5895 5893
5907 5913 5914 5919 5921 5923 5926 5934 5933 5933 5936 5936 5937 5935 5935 5937 5937 5936 5935 5938 5940 5941 5941 5940 5939 5939 5938 5937 5937 5936 5931 5924 5918 5902 5907 5892 5898 5898 5901 5902 5896 5895 5894 5889
5901 5905 5910 5910 5912 5919 5922 5924 5927 5929 5933 5934 5934 5934 5935 5933 5933 5934 5930 5934 5937 5936 5936 5936 5935 5935 5934 5935 5932 5929 5927 5918 5915 5912 5906 5896 5892 5895 5896 5895 5889 5892 5892 5889
5894 5896 5902 5905 5910 5912 5918 5922 5925 5924 5929 5929 5930 5932 5931 5932 5933 5933 5934 5932 5932 5933 5933 5931 5931 5930 5929 5928 5925 5920 5920 5916 5911 5905 5903 5894 5886 5892 5891 5892 5884 5885 5883 5880
5886 5886 5895 5898 5902 5904 5906 5914 5920 5923 5925 5925 5927 5929 5928 5929 5930 5930 5932 5931 5930 5929 5930 5929 5926 5925 5924 5921 5916 5914 5913 5910 5907 5898 5892 5891 5893 5888 5885 5881 5874 5875 5872 5867
5878 5881 5884 5890 5897 5902 5904 5908 5914 5917 5919 5923 5922 5924 5924 5924 5926 5926 5927 5927 5928 5927 5926 5925 5926 5922 5919 5919 5914 5907 5905 5902 5897 5893 5891 5887 5886 5882 5875 5868 5864 5862 5856 5853
5869 5872 5878 5885 5893 5895 5898 5903 5908 5911 5914 5915 5921 5918 5919 5920 5922 5922 5923 5923 5924 5924 5921 5919 5917 5916 5916 5913 5908 5902 5896 5893 5890 5890 5886 5882 5876 5870 5864 5857 5853 5850 5847 5843
5862 5865 5872 5877 5887 5888 5890 5894 5900 5904 5909 5909 5912 5914 5914 5914 5913 5914 5920 5922 5922 5920 5918 5915 5910 5906 5905 5903 5900 5897 5892 5887 5884 5881 5879 5875 5868 5860 5852 5848 5845 5840 5831 5824
5848 5857 5864 5868 5877 5881 5882 5886 5891 5897 5901 5904 5904 5908 5908 5907 5908 5909 5912 5916 5916 5915 5913 5911 5907 5904 5900 5897 5894 5888 5884 5880 5875 5870 5863 5856 5849 5843 5839 5836 5831 5825 5820 5816
5841 5846 5857 5860 5868 5869 5875 5881 5886 5890 5892 5894 5897 5899 5900 5901 5902 5905 5907 5908 5908 5906 5906 5905 5902 5899 5893 5887 5881 5876 5871 5867 5861 5854 5847 5842 5836 5831 5827 5822 5817 5813 5808 5801
5834 5841 5846 5851 5855 5862 5869 5875 5880 5884 5887 5889 5891 5891 5891 5894 5897 5899 5901 5901 5902 5900 5899 5897 5895 5891 5885 5879 5873 5867 5861 5855 5848 5842 5837 5833 5829 5824 5820 5814 5808 5802 5797 5791
5828 5832 5838 5844 5846 5848 5861 5869 5875 5878 5877 5881 5883 5886 5887 5888 5890 5894 5896 5897 5895 5893 5891 5889 5885 5882 5878 5874 5868 5862 5857 5851 5846 5841 5835 5828 5823 5817 5813 5809 5802 5795 5789 5784
5820 5824 5828 5833 5837 5842 5850 5860 5864 5863 5870 5871 5876 5878 5881 5883 5886 5887 5889 5888 5886 5884 5882 5879 5875 5873 5869 5865 5861 5857 5852 5846 5841 5835 5828 5822 5817 5811 5805 5797 5790 5784 5779 5773
5812 5817 5821 5827 5829 5833 5844 5850 5854 5858 5862 5864 5868 5872 5874 5877 5879 5880 5881 5880 5879 5877 5874 5871 5868 5864 5860 5857 5852 5847 5842 5837 5831 5826 5820 5814 5807 5800 5793 5787 5781 5775 5769 5763
5803 5808 5815 5819 5824 5829 5837 5842 5845 5850 5855 5858 5862 5866 5868 5871 5872 5872 5872 5870 5868 5867 5865 5862 5859 5855 5851 5847 5841 5836 5831 5825 5820 5814 5807 5800 5793 5787 5782 5776 5771 5765 5759 5754
5795 5801 5803 5809 5814 5822 5829 5833 5836 5840 5847 5852 5856 5858 5861 5863 5863 5864 5863 5862 5859 5857 5855 5852 5849 5846 5841 5835 5830 5825 5820 5814 5807 5802 5795 5789 5783 5777 5771 5765 5761 5755 5748 5742
5786 5791 5794 5800 5806 5814 5818 5824 5829 5832 5837 5842 5846 5850 5852 5852 5852 5853 5852 5850 5849 5848 5846 5844 5843 5837 5831 5826 5820 5815 5808 5802 5796 5790 5784 5779 5773 5767 5760 5754 5748 5742 5735 5730
5776 5780 5784 5794 5800 5806 5812 5816 5820 5825 5828 5832 5836 5840 5842 5842 5841 5840 5839 5839 5838 5837 5835 5833 5830 5825 5820 5814 5809 5803 5798 5792 5785 5779 5774 5768 5762 5755 5750 5744 5736 5730 5724 5716
Wind_Speed
30 35 23 23 19 16 10 1 5 3 12 19 11 9 11 17 25 26 26 8 12 14 15 13 11 12 13 15 14 13 12 12 10 8 8 7 7 4 3 4 11 9 8 10
31 24 18 24 22 18 13 4 6 11 14 20 14 5 14 18 21 22 24 21 12 10 12 12 12 12 12 11 10 10 11 12 10 9 7 5 1 2 4 5 6 5 7 9
28 21 20 21 24 21 16 5 7 4 11 16 18 5 12 15 17 20 20 21 16 12 13 13 13 13 13 12 9 8 9 8 8 9 7 6 6 7 3 4 5 4 6 7
31 27 23 19 24 25 21 14 12 8 13 17 20 12 12 10 15 18 15 13 12 20 19 16 16 16 16 15 15 14 13 13 11 10 11 12 9 8 7 5 6 6 8 6
22 23 20 21 24 30 18 18 17 8 11 21 16 14 9 12 16 14 16 17 25 24 13 15 19 19 22 23 21 19 17 17 17 17 16 15 14 12 9 7 11 10 10 9
27 24 24 24 25 34 27 29 22 17 19 13 9 19 13 14 16 21 23 26 23 14 13 15 12 18 20 25 24 30 28 23 18 14 16 16 16 16 16 12 10 12 16 15
26 25 23 25 27 39 38 36 20 16 16 4 7 20 5 14 15 18 23 24 23 22 22 22 16 14 18 21 24 31 31 30 27 23 21 22 21 20 19 19 16 15 16 19
29 27 21 20 26 40 40 32 21 15 15 15 13 20 5 12 18 19 22 21 21 22 24 25 25 19 18 20 24 28 23 30 28 27 33 34 34 26 21 18 21 21 20 26
29 27 22 25 21 30 31 25 21 21 16 8 6 12 12 12 14 20 21 22 22 25 23 25 22 24 26 25 22 31 28 33 39 39 35 33 40 30 27 33 27 30 35 35
31 27 28 23 24 24 27 21 27 25 20 10 9 15 18 16 18 20 23 24 24 29 27 29 26 27 27 31 19 17 30 39 49 45 47 27 27 28 32 31 27 13 26 25
33 32 30 31 28 23 25 28 29 24 21 17 17 16 14 20 17 20 26 24 30 30 32 32 32 31 26 28 31 29 32 39 43 40 43 46 20 25 24 23 8 28 29 29
37 37 35 34 26 23 16 11 26 29 26 26 21 18 12 16 20 22 24 26 23 30 29 35 23 23 25 26 28 30 33 34 36 38 36 45 38 23 24 29 22 36 36 35
37 41 37 35 33 32 34 24 17 26 32 32 28 23 23 23 26 31 29 29 29 28 32 24 24 28 26 30 35 38 39 38 37 39 39 33 34 31 31 34 30 37 38 41
33 41 43 41 34 29 28 26 24 20 31 35 35 32 29 29 31 35 33 32 33 33 30 23 25 31 31 31 35 38 39 40 39 37 39 39 39 38 36 37 37 41 43 44
26 37 43 41 35 31 30 20 25 22 22 26 39 39 36 34 36 40 41 40 35 33 31 31 33 36 35 36 36 41 43 42 41 39 37 41 42 42 35 41 43 45 47 48
33 35 29 44 40 37 31 34 36 29 23 23 19 31 44 42 35 37 36 34 31 38 32 35 44 43 44 41 41 41 42 42 42 43 44 43 43 44 45 45 46 47 50 50
46 40 34 37 44 45 40 40 38 40 33 26 25 24 32 40 41 41 41 34 32 30 36 42 41 44 44 44 44 45 47 48 49 49 50 50 50 50 48 48 48 49 48 50
47 44 41 40 35 56 51 42 38 30 33 32 30 34 35 41 43 42 42 41 38 42 44 41 45 45 45 45 48 50 51 52 53 53 53 53 52 51 52 52 52 52 54 58
50 46 46 46 45 43 50 53 45 38 32 27 26 31 34 40 44 45 48 44 43 45 41 43 49 48 43 50 52 53 54 54 53 54 55 54 54 54 53 55 59 62 61 59
51 52 52 44 47 48 38 41 54 47 43 41 31 35 32 40 43 46 48 42 46 45 45 45 46 50 47 52 52 51 50 49 50 50 52 53 53 55 57 58 59 57 54 51
53 56 56 52 44 47 43 32 36 56 52 45 39 39 37 37 39 40 38 37 43 48 47 48 49 47 52 55 52 50 48 48 48 48 49 51 53 55 57 54 53 50 50 49
60 61 59 56 50 53 45 36 35 44 54 53 42 42 38 31 33 37 41 47 49 47 50 51 49 50 55 57 53 50 48 47 47 49 51 53 54 52 50 49 50 50 47 44
63 61 64 60 55 53 38 27 29 38 50 57 46 42 41 37 40 41 45 50 50 55 51 51 49 55 57 54 51 49 48 48 51 52 53 53 50 50 48 50 49 45 43 44
63 51 63 52 54 45 34 31 28 28 33 50 57 55 51 50 47 43 48 48 49 46 46 49 51 54 54 52 50 49 49 50 52 54 51 49 49 49 49 48 44 44 46 48
58 63 51 61 53 44 41 36 34 31 31 32 41 47 50 47 47 50 52 51 48 49 48 49 54 54 53 52 50 50 50 52 53 50 48 49 48 47 45 43 45 47 50 50
59 60 54 52 43 45 45 45 45 41 39 39 37 41 47 45 43 43 47 51 48 46 49 54 54 52 51 49 50 50 52 54 49 47 47 47 44 41 42 45 49 50 50 49
Wind_Direction
160 149 142 126 132 134 128 210 199 292 313 338 32 87 39 31 27 30 18 31 56 54 48 43 44 49 52 56 59 54 44 47 50 50 60 63 62 44 12 34 356 337 341 27
164 175 176 157 148 135 120 112 138 242 281 320 352 98 57 34 23 35 28 14 355 14 34 38 37 36 37 41 43 39 40 34 24 18 19 37 36 334 16 2 20 339 354 21
181 182 185 174 153 140 119 127 193 337 294 310 309 342 60 57 48 30 21 11 354 5 16 25 28 32 32 26 24 28 15 6 1 350 339 326 318 328 338 1 342 334 326 360
179 192 192 193 166 143 127 177 179 228 260 283 281 293 32 18 31 23 15 41 11 2 3 9 6 6 15 16 8 5 0 353 347 338 325 322 312 299 327 322 312 318 332 333
190 196 202 197 176 143 157 177 193 210 230 259 272 293 338 323 11 355 350 6 349 350 350 354 350 359 1 2 1 359 351 346 337 333 327 320 315 305 303 303 304 316 309 315
195 194 207 188 179 159 185 187 192 220 243 265 289 283 288 326 348 343 349 355 355 3 12 8 353 340 347 346 345 347 342 337 333 331 320 314 308 308 311 309 313 306 309 314
213 210 203 197 179 174 196 203 212 200 219 137 233 255 283 295 311 324 338 352 349 355 356 350 349 338 341 326 324 328 329 328 325 324 322 315 307 300 299 304 303 302 302 284
214 220 219 215 191 190 202 211 201 180 176 187 213 243 311 285 289 300 321 337 344 352 349 344 341 346 346 331 322 308 314 308 309 316 312 305 300 293 289 293 296 291 280 272
214 216 226 232 209 198 212 216 177 192 202 239 285 278 280 285 273 287 305 322 323 329 340 343 336 332 332 330 338 326 323 290 319 295 290 275 280 292 291 283 270 301 286 282
216 213 220 223 219 205 210 202 198 211 215 217 252 281 266 283 272 285 294 314 311 318 325 333 335 331 326 347 342 335 324 304 300 301 336 278 276 272 269 324 270 336 327 292
213 217 221 212 213 214 211 208 207 219 216 216 242 270 282 281 297 285 290 294 303 311 321 324 323 327 339 331 332 324 316 318 320 333 317 322 273 287 328 310 292 291 313 307
211 219 212 226 209 191 203 217 234 217 210 211 235 256 270 259 270 268 279 299 301 309 321 322 333 339 340 330 322 316 314 324 305 312 331 332 327 327 305 298 302 297 301 301
211 220 218 218 215 213 202 208 228 235 219 213 223 243 248 251 257 265 274 276 297 309 312 310 324 335 332 322 320 317 317 318 315 322 326 321 314 312 300 300 307 300 302 304
206 221 228 223 218 221 228 212 227 238 233 226 222 233 244 253 257 262 271 281 292 296 303 300 301 313 323 322 316 318 319 316 320 318 313 308 303 302 303 305 308 307 308 306
211 220 224 230 212 221 218 220 234 237 260 232 227 236 244 253 256 258 267 275 283 289 301 300 308 317 315 314 317 316 316 314 310 307 303 297 298 303 305 311 312 311 309 308
215 232 225 225 212 210 210 210 224 235 252 252 224 241 249 252 260 262 261 267 278 280 288 299 310 314 314 313 315 312 311 309 306 303 303 302 303 307 312 312 310 311 314 315
208 225 233 227 215 208 211 215 216 226 225 239 242 249 246 246 253 264 271 279 275 277 284 298 304 306 307 309 309 309 308 307 306 306 307 308 312 315 315 313 314 313 311 310
212 209 227 238 233 216 226 214 215 222 220 227 235 259 248 250 253 262 274 282 288 288 288 292 299 304 306 307 309 309 308 308 309 309 311 315 316 316 315 315 314 312 313 313
211 211 216 231 242 242 222 221 219 218 223 240 232 248 246 248 255 258 262 272 282 284 285 289 298 301 303 310 309 307 307 308 310 311 314 314 312 312 311 312 312 310 308 309
210 207 212 221 237 240 233 222 222 224 229 230 228 240 252 240 247 253 259 273 278 277 285 295 292 299 299 307 305 303 303 302 301 303 303 304 305 304 302 304 305 307 308 306
214 214 219 223 229 238 242 226 222 225 225 229 233 229 245 236 248 255 262 272 283 285 289 293 293 290 296 303 302 301 299 298 300 302 302 300 300 302 304 305 307 306 305 305
217 223 224 228 233 242 246 250 232 230 222 232 232 239 249 259 259 267 271 274 277 276 280 282 289 289 295 300 301 301 301 303 303 300 300 302 302 304 305 307 305 305 305 303
214 222 227 234 242 251 254 248 252 234 224 231 236 238 245 253 258 265 270 271 267 273 275 281 285 291 297 301 300 302 305 305 302 302 304 305 306 307 308 306 304 303 302 302
212 217 225 228 236 239 239 241 240 234 226 229 238 245 246 250 256 260 261 273 275 279 280 282 288 294 300 301 302 305 306 304 303 305 305 305 307 307 305 303 304 302 303 305
211 212 216 225 230 233 236 239 235 239 248 241 235 240 244 247 250 258 266 270 273 281 281 286 292 298 299 300 303 305 303 304 305 305 306 307 306 304 304 305 304 305 305 306
210 214 216 224 230 237 239 244 249 249 250 247 243 243 244 254 265 263 268 275 279 283 289 294 297 295 297 300 303 304 304 305 305 307 306 304 304 304 306 305 306 307 308 309